FW8355 Weather Reports


time (UTC)temp
F
wind
direction
speed
knots
gust
knots
rain 1hr
in
rain 24hr
in
rain mn
in
humidity
%
barometer
mb
20260504020016 51 0.0 0.0 0.00 0.00 0.00 87 1017.5
20260504015016 51 0.0 0.0 0.00 0.00 0.00 87 1017.6
20260504014016 52 0.0 1.7 0.00 0.00 0.00 88 1017.5
20260504013036 52 0.0 0.0 0.00 0.00 0.00 87 1017.5
20260504012016 52 0.0 0.0 0.00 0.00 0.00 86 1017.4
20260504011016 53 0.0 1.7 0.00 0.00 0.00 86 1017.3
20260504010016 53 0.0 0.9 0.00 0.00 0.00 85 1017.3
20260504005016 53 0.0 0.9 0.00 0.00 0.00 83 1017.2
20260504004016 53 0.0 0.0 0.00 0.00 0.00 82 1017.3
20260504003016 54 0.0 0.9 0.00 0.00 0.00 81 1017.2
20260504002019 54 45 2.6 5.2 0.00 0.00 0.00 83 1017.1
20260504001016 52 45 0.9 3.5 0.00 0.00 0.00 83 1017.1
20260504000016 53 45 0.9 2.6 0.00 0.00 0.00 83 1017.1
20260503235016 53 0.0 1.7 0.00 0.00 0.00 83 1017.2
20260503234016 54 0.0 0.9 0.00 0.00 0.00 84 1017.4
20260503233056 55 0.0 0.0 0.00 0.00 0.00 84 1017.5
20260503232036 54 338 0.9 1.7 0.00 0.00 0.00 86 1017.6
20260503231016 54 23 0.9 2.6 0.00 0.00 0.00 86 1017.6
20260503230036 54 0.0 0.0 0.00 0.00 0.00 87 1017.7
20260503225016 54 0.0 0.0 0.00 0.00 0.00 87 1017.8
20260503224016 54 0.0 0.0 0.00 0.00 0.00 86 1017.8
20260503223016 55 0.0 0.0 0.00 0.00 0.00 86 1017.7
20260503222016 55 0.0 0.0 0.00 0.00 0.00 86 1017.8
20260503221015 56 338 0.9 1.7 0.00 0.00 0.00 86 1017.6
20260503220036 56 338 0.9 1.7 0.00 0.00 0.00 85 1017.6
20260503215016 56 338 0.9 1.7 0.00 0.00 0.00 85 1017.6
20260503214036 57 0.0 0.0 0.00 0.00 0.00 84 1017.7
20260503213016 58 0.0 0.0 0.00 0.00 0.00 82 1017.5
20260503212016 59 0.0 0.9 0.00 0.00 0.00 82 1017.5
20260503211018 59 0.0 1.7 0.00 0.00 0.00 81 1017.5
20260503210016 59 270 2.6 6.1 0.00 0.00 0.00 80 1017.5
20260503205016 60 270 4.3 8.7 0.00 0.00 0.00 81 1017.5
20260503204016 59 270 1.7 3.5 0.00 0.00 0.00 81 1017.3
20260503203016 59 270 1.7 6.1 0.00 0.00 0.00 80 1017.2
20260503202016 59 270 2.6 5.2 0.00 0.00 0.00 82 1017.2
20260503201016 58 293 2.6 4.3 0.00 0.00 0.00 83 1017.1
20260503200036 58 315 0.9 3.5 0.00 0.00 0.00 83 1017.1
20260503195016 58 338 1.7 1.7 0.00 0.00 0.00 83 1017.1
20260503194016 58 293 0.9 1.7 0.00 0.00 0.00 83 1016.9
20260503193016 57 293 0.9 2.6 0.00 0.00 0.00 84 1016.9
20260503192016 57 0.0 0.0 0.00 0.00 0.00 84 1016.8
20260503191016 57 0.0 0.0 0.00 0.00 0.00 83 1016.7
20260503190016 58 0.0 0.9 0.00 0.00 0.00 83 1016.6
20260503185016 58 315 0.9 2.6 0.00 0.00 0.00 83 1016.6
20260503184016 58 293 0.9 2.6 0.00 0.00 0.00 82 1016.5
20260503183016 59 0.0 1.7 0.00 0.00 0.00 82 1016.4
20260503182016 59 293 0.9 1.7 0.00 0.00 0.00 81 1016.3
20260503181016 60 0.0 0.0 0.00 0.00 0.00 79 1016.2
20260503180016 61 0.0 0.9 0.00 0.00 0.00 77 1016.0
20260503175016 62 0.0 0.0 0.00 0.00 0.00 75 1015.9
20260503174016 62 0.0 0.9 0.00 0.00 0.00 75 1015.9
20260503173016 63 0.0 1.7 0.00 0.00 0.00 74 1015.9
20260503172016 63 203 1.7 4.3 0.00 0.00 0.00 73 1016.0
20260503171015 64 203 4.3 7.8 0.00 0.00 0.00 72 1016.0
20260503131017 71 203 3.5 8.7 0.00 0.00 0.00 49 1016.3
20260503081017 66 203 1.7 6.1 0.00 0.00 0.00 41 1018.1
20260503072016 62 90 0.9 2.6 0.00 0.00 0.00 53 1018.3
20260503071017 61 158 1.7 3.5 0.00 0.00 0.00 55 1018.2
20260503055016 55 0.0 2.6 0.00 0.00 0.00 64 1018.4
20260503054016 53 68 0.9 3.5 0.00 0.00 0.00 64 1018.4
20260503053016 53 0.0 0.0 0.00 0.00 0.00 65 1018.5
20260503052017 52 0.0 0.0 0.00 0.00 0.00 66 1018.4
20260503051016 52 0.0 0.0 0.00 0.00 0.00 67 1018.3
20260503050017 50 0.0 0.0 0.00 0.00 0.00 69 1018.2
20260503045016 48 0.0 0.0 0.00 0.00 0.00 70 1018.1
20260503044037 47 0.0 0.0 0.00 0.00 0.00 72 1018.0
20260503043157 47 0.0 0.0 0.00 0.00 0.00 72 1018.0
20260503042016 46 0.0 0.0 0.00 0.00 0.00 73 1018.0
20260503041016 46 0.0 0.0 0.00 0.00 0.00 73 1017.9
20260503040019 46 0.0 0.0 0.00 0.00 0.00 71 1017.8
20260503035036 47 0.0 0.0 0.00 0.00 0.00 69 1017.8
20260503034016 47 0.0 0.0 0.00 0.00 0.00 67 1017.8
20260503033016 46 0.0 0.0 0.00 0.00 0.00 68 1017.6
20260503032016 46 0.0 0.0 0.00 0.00 0.00 68 1017.6
20260503031016 46 0.0 0.0 0.00 0.00 0.00 69 1017.7
20260503030016 46 0.0 0.0 0.00 0.00 0.00 70 1017.8
20260503025016 46 45 1.7 3.5 0.00 0.00 0.00 70 1017.7
20260503024016 46 23 2.6 3.5 0.00 0.00 0.00 71 1017.9
20260503023016 47 45 0.9 2.6 0.00 0.00 0.00 70 1018.0
20260503022016 46 0.0 1.7 0.00 0.00 0.00 70 1018.1
20260503021016 47 0.0 0.9 0.00 0.00 0.00 71 1018.1